| time (UTC) | temp F | wind direction | speed knots | gust knots | rain 1hr in | rain 24hr in | rain mn in | humidity % | barometer mb |
| 20260504214903 | 58 | 304 | 21.7 | 30.4 | 0.00 | 0.00 | 0.00 | 37 | 1004.2 |
| 20260504214403 | 59 | 298 | 22.6 | 28.7 | 0.00 | 0.00 | 0.00 | 40 | 1004.2 |
| 20260504213403 | 60 | 317 | 20.0 | 28.7 | 0.00 | 0.00 | 0.00 | 41 | 1004.2 |
| 20260504212903 | 60 | 294 | 22.6 | 30.4 | 0.00 | 0.00 | 0.00 | 40 | 1003.8 |
| 20260504212403 | 61 | 301 | 20.0 | 26.9 | 0.00 | 0.00 | 0.00 | 39 | 1003.6 |
| 20260504211903 | 61 | 299 | 18.2 | 24.3 | 0.00 | 0.00 | 0.00 | 38 | 1003.5 |
| 20260504211403 | 60 | 315 | 22.6 | 28.7 | 0.00 | 0.00 | 0.00 | 38 | 1003.6 |
| 20260504210903 | 60 | 309 | 22.6 | 27.8 | 0.00 | 0.00 | 0.00 | 37 | 1003.6 |
| 20260504210403 | 61 | 308 | 20.0 | 30.4 | 0.00 | 0.00 | 0.00 | 37 | 1003.5 |
| 20260504205403 | 62 | 308 | 22.6 | 28.7 | 0.00 | 0.00 | 0.00 | 36 | 1003.4 |
| 20260504204903 | 62 | 301 | 20.9 | 26.9 | 0.00 | 0.00 | 0.00 | 36 | 1003.2 |
| 20260504204403 | 62 | 318 | 20.0 | 25.2 | 0.00 | 0.00 | 0.00 | 35 | 1003.3 |
| 20260504203903 | 62 | 315 | 17.4 | 25.2 | 0.00 | 0.00 | 0.00 | 35 | 1003.2 |
| 20260504203403 | 62 | 321 | 18.2 | 24.3 | 0.00 | 0.00 | 0.00 | 34 | 1003.3 |
| 20260504202403 | 63 | 318 | 21.7 | 30.4 | 0.00 | 0.00 | 0.00 | 33 | 1003.2 |
| 20260504201904 | 63 | 308 | 20.9 | 26.1 | 0.00 | 0.00 | 0.00 | 32 | 1003.4 |
| 20260504201404 | 63 | 331 | 21.7 | 28.7 | 0.00 | 0.00 | 0.00 | 31 | 1003.3 |
| 20260504200903 | 64 | 311 | 22.6 | 30.4 | 0.00 | 0.00 | 0.00 | 33 | 1003.2 |
| 20260504200403 | 65 | 305 | 21.7 | 27.8 | 0.00 | 0.00 | 0.00 | 33 | 1003.0 |
| 20260504195903 | 65 | 319 | 21.7 | 26.9 | 0.00 | 0.00 | 0.00 | 34 | 1003.0 |
| 20260504195403 | 65 | 308 | 20.9 | 26.9 | 0.00 | 0.00 | 0.00 | 34 | 1002.8 |
| 20260504194904 | 65 | 331 | 20.9 | 27.8 | 0.00 | 0.00 | 0.00 | 36 | 1002.9 |
| 20260504194403 | 65 | 321 | 17.4 | 26.9 | 0.00 | 0.00 | 0.00 | 35 | 1002.9 |
| 20260504193904 | 65 | 312 | 21.7 | 27.8 | 0.00 | 0.00 | 0.00 | 36 | 1003.1 |
| 20260504193403 | 65 | 293 | 19.1 | 26.1 | 0.00 | 0.00 | 0.00 | 35 | 1002.9 |
| 20260504192903 | 65 | 309 | 20.0 | 26.9 | 0.00 | 0.00 | 0.00 | 35 | 1002.8 |
| 20260504192403 | 66 | 313 | 21.7 | 28.7 | 0.00 | 0.00 | 0.00 | 35 | 1002.8 |
| 20260504191903 | 66 | 327 | 20.9 | 26.9 | 0.00 | 0.00 | 0.00 | 35 | 1002.8 |
| 20260504191403 | 66 | 336 | 15.6 | 26.9 | 0.00 | 0.00 | 0.00 | 35 | 1003.0 |
| 20260504190904 | 65 | 299 | 20.0 | 26.1 | 0.00 | 0.00 | 0.00 | 34 | 1002.8 |
| 20260504190403 | 65 | 332 | 20.0 | 25.2 | 0.00 | 0.00 | 0.00 | 34 | 1002.9 |
| 20260504185403 | 65 | 337 | 21.7 | 30.4 | 0.00 | 0.00 | 0.00 | 34 | 1002.9 |
| 20260504183903 | 67 | 297 | 17.4 | 25.2 | 0.00 | 0.00 | 0.00 | 34 | 1002.7 |
| 20260504183403 | 66 | 318 | 15.6 | 22.6 | 0.00 | 0.00 | 0.00 | 35 | 1002.7 |
| 20260504182904 | 66 | 321 | 18.2 | 24.3 | 0.00 | 0.00 | 0.00 | 34 | 1002.8 |
| 20260504182403 | 66 | 311 | 18.2 | 24.3 | 0.00 | 0.00 | 0.00 | 35 | 1002.7 |
| 20260504181903 | 65 | 314 | 13.9 | 21.7 | 0.00 | 0.00 | 0.00 | 36 | 1002.6 |
| 20260504181403 | 66 | 321 | 18.2 | 26.1 | 0.00 | 0.00 | 0.00 | 36 | 1002.6 |
| 20260504180903 | 66 | 300 | 18.2 | 22.6 | 0.00 | 0.00 | 0.00 | 37 | 1002.3 |
| 20260504180403 | 65 | 322 | 18.2 | 25.2 | 0.00 | 0.00 | 0.00 | 37 | 1002.4 |
| 20260504175904 | 65 | 316 | 17.4 | 25.2 | 0.00 | 0.00 | 0.00 | 37 | 1002.2 |
| 20260504175404 | 65 | 314 | 15.6 | 22.6 | 0.00 | 0.00 | 0.00 | 38 | 1002.1 |
| 20260504174903 | 65 | 315 | 20.9 | 28.7 | 0.00 | 0.00 | 0.00 | 37 | 1002.2 |
| 20260504174403 | 66 | 343 | 16.5 | 22.6 | 0.00 | 0.00 | 0.00 | 37 | 1002.0 |
| 20260504173904 | 66 | 323 | 14.8 | 21.7 | 0.00 | 0.00 | 0.00 | 37 | 1002.0 |
| 20260504172903 | 65 | 310 | 13.0 | 21.7 | 0.00 | 0.00 | 0.00 | 38 | 1002.0 |
| 20260504171903 | 65 | 348 | 15.6 | 21.7 | 0.00 | 0.00 | 0.00 | 38 | 1002.1 |
| 20260504170403 | 64 | 321 | 13.9 | 20.9 | 0.00 | 0.00 | 0.00 | 39 | 1002.0 |
| 20260504160403 | 63 | 338 | 14.8 | 18.2 | 0.00 | 0.00 | 0.00 | 42 | 1001.3 |
| 20260504140903 | 64 | 299 | 15.6 | 22.6 | 0.00 | 0.00 | 0.00 | 52 | 1000.3 |
| 20260504140403 | 64 | 293 | 17.4 | 21.7 | 0.00 | 0.00 | 0.00 | 51 | 1000.3 |
| 20260504130403 | 59 | 239 | 12.2 | 17.4 | 0.00 | 0.00 | 0.00 | 57 | 999.5 |
| 20260504110403 | 53 | 223 | 8.7 | 14.8 | 0.00 | 0.00 | 0.00 | 62 | 1000.1 |
| 20260504100403 | 53 | 210 | 8.7 | 13.0 | 0.00 | 0.00 | 0.00 | 60 | 1000.6 |
| 20260504081904 | 54 | 209 | 10.4 | 15.6 | 0.00 | 0.00 | 0.00 | 57 | 1001.5 |
| 20260504081403 | 53 | 204 | 8.7 | 13.0 | 0.00 | 0.00 | 0.00 | 57 | 1001.5 |
| 20260504080903 | 53 | 206 | 9.6 | 15.6 | 0.00 | 0.00 | 0.00 | 57 | 1001.8 |
| 20260504080403 | 53 | 210 | 10.4 | 13.9 | 0.00 | 0.00 | 0.00 | 58 | 1001.9 |
| 20260504050403 | 58 | 207 | 7.0 | 10.4 | 0.00 | 0.00 | 0.00 | 48 | 1004.2 |
| 20260504045903 | 58 | 205 | 7.0 | 10.4 | 0.00 | 0.00 | 0.00 | 48 | 1004.2 |
| 20260504045404 | 58 | 205 | 7.0 | 10.4 | 0.00 | 0.00 | 0.00 | 48 | 1004.3 |
| 20260504044903 | 57 | 206 | 7.0 | 8.7 | 0.00 | 0.00 | 0.00 | 49 | 1004.4 |
| 20260504044403 | 58 | 200 | 6.1 | 8.7 | 0.00 | 0.00 | 0.00 | 48 | 1004.4 |
| 20260504043903 | 58 | 205 | 7.0 | 10.4 | 0.00 | 0.00 | 0.00 | 48 | 1004.5 |
| 20260504043404 | 59 | 201 | 6.1 | 8.7 | 0.00 | 0.00 | 0.00 | 47 | 1004.5 |
| 20260504042404 | 60 | 205 | 6.1 | 8.7 | 0.00 | 0.00 | 0.00 | 45 | 1004.7 |
| 20260504041403 | 60 | 206 | 7.0 | 10.4 | 0.00 | 0.00 | 0.00 | 45 | 1004.8 |
| 20260504040904 | 61 | 207 | 7.0 | 10.4 | 0.00 | 0.00 | 0.00 | 44 | 1004.9 |
| 20260504040403 | 61 | 209 | 7.0 | 10.4 | 0.00 | 0.00 | 0.00 | 43 | 1005.1 |
| 20260504035903 | 61 | 212 | 7.0 | 10.4 | 0.00 | 0.00 | 0.00 | 44 | 1005.2 |
| 20260504035403 | 60 | 214 | 5.2 | 7.8 | 0.00 | 0.00 | 0.00 | 45 | 1005.3 |
| 20260504034903 | 59 | 219 | 5.2 | 7.8 | 0.00 | 0.00 | 0.00 | 46 | 1005.4 |
| 20260504034404 | 59 | 231 | 5.2 | 6.1 | 0.00 | 0.00 | 0.00 | 46 | 1005.6 |
| 20260504033403 | 61 | 224 | 4.3 | 7.8 | 0.00 | 0.00 | 0.00 | 43 | 1005.7 |
| 20260504032903 | 60 | 221 | 5.2 | 8.7 | 0.00 | 0.00 | 0.00 | 44 | 1005.8 |
| 20260504032404 | 60 | 211 | 5.2 | 7.8 | 0.00 | 0.00 | 0.00 | 45 | 1005.8 |
| 20260504031903 | 58 | 215 | 5.2 | 8.7 | 0.00 | 0.00 | 0.00 | 46 | 1006.0 |
| 20260504031404 | 56 | 213 | 5.2 | 8.7 | 0.00 | 0.00 | 0.00 | 50 | 1006.0 |
| 20260504030903 | 54 | 236 | 5.2 | 7.0 | 0.00 | 0.00 | 0.00 | 52 | 1006.2 |
| 20260504030403 | 54 | 238 | 5.2 | 5.2 | 0.00 | 0.00 | 0.00 | 51 | 1006.2 |
| 20260504025903 | 55 | 238 | 5.2 | 7.0 | 0.00 | 0.00 | 0.00 | 51 | 1006.2 |
| 20260504025403 | 55 | 234 | 4.3 | 6.1 | 0.00 | 0.00 | 0.00 | 51 | 1006.2 |
| 20260504024903 | 54 | 229 | 5.2 | 6.1 | 0.00 | 0.00 | 0.00 | 52 | 1006.2 |
| 20260504024403 | 54 | 242 | 4.3 | 5.2 | 0.00 | 0.00 | 0.00 | 51 | 1006.2 |
| 20260504023904 | 54 | 242 | 5.2 | 5.2 | 0.00 | 0.00 | 0.00 | 51 | 1006.2 |
| 20260504023403 | 55 | 242 | 4.3 | 5.2 | 0.00 | 0.00 | 0.00 | 50 | 1006.2 |
| 20260504022904 | 55 | 242 | 5.2 | 5.2 | 0.00 | 0.00 | 0.00 | 49 | 1006.2 |
| 20260504022403 | 56 | 238 | 6.1 | 7.8 | 0.00 | 0.00 | 0.00 | 48 | 1006.0 |
| 20260504021904 | 56 | 236 | 5.2 | 7.8 | 0.00 | 0.00 | 0.00 | 48 | 1005.9 |
| 20260504021403 | 56 | 242 | 4.3 | 5.2 | 0.00 | 0.00 | 0.00 | 48 | 1005.9 |
| 20260504020903 | 56 | 242 | 4.3 | 5.2 | 0.00 | 0.00 | 0.00 | 48 | 1006.0 |
| 20260504020403 | 57 | 242 | 5.2 | 7.0 | 0.00 | 0.00 | 0.00 | 48 | 1006.1 |
| 20260504015903 | 57 | 234 | 5.2 | 6.1 | 0.00 | 0.00 | 0.00 | 47 | 1006.1 |
| 20260504015404 | 57 | 236 | 4.3 | 5.2 | 0.00 | 0.00 | 0.00 | 45 | 1006.2 |
| 20260504013904 | 61 | 236 | 4.3 | 5.2 | 0.00 | 0.00 | 0.00 | 39 | 1006.3 |
| 20260504013404 | 63 | 246 | 5.2 | 6.1 | 0.00 | 0.00 | 0.00 | 37 | 1006.3 |
| 20260504012904 | 65 | 235 | 5.2 | 7.0 | 0.00 | 0.00 | 0.00 | 35 | 1006.3 |
| 20260504012403 | 66 | 258 | 5.2 | 7.8 | 0.00 | 0.00 | 0.00 | 33 | 1006.3 |
| 20260504011903 | 66 | 257 | 4.3 | 7.0 | 0.00 | 0.00 | 0.00 | 33 | 1006.3 |
| 20260504011403 | 67 | 267 | 6.1 | 7.8 | 0.00 | 0.00 | 0.00 | 33 | 1006.3 |
| 20260504010903 | 67 | 266 | 6.1 | 10.4 | 0.00 | 0.00 | 0.00 | 32 | 1006.3 |
| 20260504010404 | 68 | 265 | 6.1 | 10.4 | 0.00 | 0.00 | 0.00 | 32 | 1006.2 |
| 20260504005904 | 68 | 266 | 7.0 | 10.4 | 0.00 | 0.00 | 0.00 | 31 | 1006.2 |
| 20260504005403 | 69 | 262 | 8.7 | 11.3 | 0.00 | 0.00 | 0.00 | 32 | 1006.2 |
| 20260504004903 | 69 | 265 | 8.7 | 13.0 | 0.00 | 0.00 | 0.00 | 32 | 1006.3 |
| 20260504004404 | 70 | 270 | 7.0 | 10.4 | 0.00 | 0.00 | 0.00 | 32 | 1006.3 |
| 20260504003404 | 70 | 272 | 6.1 | 11.3 | 0.00 | 0.00 | 0.00 | 32 | 1006.2 |
| 20260504002903 | 70 | 280 | 10.4 | 14.8 | 0.00 | 0.00 | 0.00 | 31 | 1006.2 |
| 20260504002403 | 71 | 280 | 9.6 | 13.0 | 0.00 | 0.00 | 0.00 | 31 | 1006.3 |
| 20260504001903 | 71 | 261 | 7.8 | 13.9 | 0.00 | 0.00 | 0.00 | 31 | 1006.3 |
| 20260504001403 | 71 | 266 | 8.7 | 11.3 | 0.00 | 0.00 | 0.00 | 30 | 1006.3 |
| 20260504000904 | 71 | 269 | 11.3 | 17.4 | 0.00 | 0.00 | 0.00 | 29 | 1006.3 |
| 20260504000404 | 71 | 262 | 7.8 | 12.2 | 0.00 | 0.00 | 0.00 | 30 | 1006.4 |
| 20260503235903 | 71 | 273 | 10.4 | 13.0 | 0.00 | 0.00 | 0.00 | 31 | 1006.4 |
| 20260503235404 | 71 | 289 | 10.4 | 13.0 | 0.00 | 0.00 | 0.00 | 29 | 1006.4 |
| 20260503234903 | 71 | 301 | 10.4 | 13.9 | 0.00 | 0.00 | 0.00 | 29 | 1006.5 |
| 20260503234404 | 71 | 283 | 8.7 | 14.8 | 0.00 | 0.00 | 0.00 | 28 | 1006.4 |
| 20260503233903 | 71 | 280 | 10.4 | 13.9 | 0.00 | 0.00 | 0.00 | 27 | 1006.5 |
| 20260503233403 | 71 | 303 | 12.2 | 14.8 | 0.00 | 0.00 | 0.00 | 26 | 1006.6 |
| 20260503232903 | 72 | 294 | 14.8 | 18.2 | 0.00 | 0.00 | 0.00 | 26 | 1006.6 |
| 20260503231903 | 71 | 277 | 11.3 | 14.8 | 0.00 | 0.00 | 0.00 | 27 | 1006.6 |
| 20260503231403 | 72 | 296 | 12.2 | 15.6 | 0.00 | 0.00 | 0.00 | 29 | 1006.7 |
| 20260503230403 | 72 | 299 | 13.9 | 17.4 | 0.00 | 0.00 | 0.00 | 29 | 1006.8 |
| 20260503225904 | 72 | 293 | 11.3 | 17.4 | 0.00 | 0.00 | 0.00 | 28 | 1006.8 |
| 20260503225403 | 72 | 311 | 13.9 | 17.4 | 0.00 | 0.00 | 0.00 | 28 | 1006.9 |
| 20260503224904 | 72 | 309 | 11.3 | 17.4 | 0.00 | 0.00 | 0.00 | 29 | 1006.9 |
| 20260503224404 | 72 | 296 | 11.3 | 17.4 | 0.00 | 0.00 | 0.00 | 28 | 1006.9 |
| 20260503223903 | 72 | 310 | 14.8 | 19.1 | 0.00 | 0.00 | 0.00 | 29 | 1007.0 |
| 20260503223403 | 72 | 329 | 10.4 | 13.9 | 0.00 | 0.00 | 0.00 | 30 | 1006.9 |
| 20260503222903 | 72 | 302 | 11.3 | 15.6 | 0.00 | 0.00 | 0.00 | 31 | 1007.0 |
| 20260503222403 | 72 | 303 | 12.2 | 14.8 | 0.00 | 0.00 | 0.00 | 30 | 1007.0 |
| 20260503221903 | 72 | 261 | 11.3 | 17.4 | 0.00 | 0.00 | 0.00 | 30 | 1006.9 |
| 20260503221403 | 72 | 282 | 12.2 | 17.4 | 0.00 | 0.00 | 0.00 | 30 | 1007.0 |
| 20260503220903 | 71 | 288 | 7.0 | 13.9 | 0.00 | 0.00 | 0.00 | 31 | 1007.1 |
| 20260503220404 | 71 | 289 | 7.8 | 13.9 | 0.00 | 0.00 | 0.00 | 31 | 1007.2 |
| 20260503215403 | 71 | 314 | 4.3 | 15.6 | 0.00 | 0.00 | 0.00 | 32 | 1007.3 |